Theta_e
323 323 323 322 322 322 321 320 320 319 320 319 319 318 318 318 316 315 315 312 312 312 309 310 310 309 308 305 303 301 300 300 299 298 298 298 299 304 310 311 313 315 317 318 319 319 319 321 322 323 324 325 324 324 324 324 323 323 324 324 324 325 324 323 323 323 323 323 323 323 323 323 323 323 323 325 327 327 327 327 327 326 325 324 324
321 321 321 319 319 319 319 319 318 318 318 317 316 317 316 316 315 314 313 313 312 313 311 310 310 310 309 305 303 302 301 300 299 299 298 298 297 297 305 306 308 311 313 314 316 317 317 318 320 321 322 323 323 323 323 323 323 323 323 324 323 323 323 323 322 322 322 322 322 322 322 322 322 323 323 323 324 325 326 326 327 327 327 325 324
319 319 318 318 318 318 317 317 317 317 316 315 314 313 313 313 312 311 311 310 310 311 311 310 310 310 308 305 303 302 301 300 299 298 298 297 296 295 296 300 303 305 308 311 312 313 314 315 318 319 320 321 322 322 322 323 323 323 323 322 323 323 322 322 321 322 322 322 321 321 321 321 322 322 322 323 323 324 325 326 326 325 326 326 326
317 316 316 315 314 314 314 313 312 312 311 309 307 306 306 305 305 306 306 307 307 308 308 309 308 307 306 304 302 300 298 297 296 296 296 295 295 294 294 294 297 300 302 306 309 310 312 312 314 316 317 318 320 320 320 322 321 321 321 321 322 322 321 321 320 320 321 321 320 320 320 320 321 321 322 322 322 323 324 325 325 326 327 328 326
314 314 313 312 312 311 310 309 308 307 305 304 303 303 302 302 301 302 302 303 304 305 307 307 306 305 304 303 301 299 297 295 294 293 293 293 292 292 292 291 290 294 296 299 303 307 309 309 310 313 314 315 317 318 318 320 319 319 320 320 320 321 320 319 318 318 319 319 319 318 318 318 318 318 319 319 319 321 322 323 324 325 325 325 328
313 312 311 310 309 308 307 305 304 302 301 300 299 299 299 299 299 300 300 300 299 301 304 303 304 304 303 302 300 298 296 293 292 290 290 289 289 290 290 290 289 288 288 293 297 302 305 306 307 310 311 312 314 315 317 318 318 317 317 318 318 318 318 317 317 317 317 317 316 316 316 316 316 316 316 316 317 317 319 320 321 322 322 323 323
310 309 308 308 306 305 304 303 301 298 297 296 296 295 295 294 296 297 296 297 298 299 300 299 300 300 300 299 298 296 294 292 290 289 287 287 287 287 288 288 288 287 287 286 290 295 300 303 304 306 309 310 311 312 314 316 316 316 316 316 317 318 317 316 316 315 315 314 314 314 314 314 315 315 315 315 315 316 316 318 319 319 319 320 321
305 306 304 303 303 301 300 299 298 296 295 294 293 292 291 291 290 293 296 295 297 295 296 295 295 295 296 296 296 295 293 291 289 287 286 286 286 285 286 286 287 287 288 285 285 289 296 299 301 302 304 307 309 311 312 314 315 315 315 316 315 315 316 316 314 314 314 313 312 312 312 312 313 313 314 314 314 315 315 316 317 318 318 319 321
301 302 301 300 299 298 298 297 296 294 292 291 290 290 290 289 288 289 293 294 294 293 292 291 291 290 291 290 290 291 290 289 288 286 287 285 284 284 285 285 286 288 285 284 284 284 289 295 296 297 299 303 306 308 309 312 313 314 314 314 316 315 315 314 313 315 314 314 314 313 312 312 312 312 312 312 313 313 314 315 315 316 316 317 319
298 298 298 297 297 296 296 295 294 292 290 289 288 287 287 289 287 287 289 293 293 291 290 289 290 289 288 287 287 287 287 287 287 287 284 284 284 283 283 284 284 284 284 283 283 284 284 288 291 292 294 300 303 305 306 307 309 311 313 313 314 313 313 312 312 312 312 312 312 312 312 312 312 312 312 312 313 313 313 313 314 315 316 316 317
296 296 295 294 294 294 293 293 292 290 289 288 287 287 287 287 288 288 288 289 291 290 289 289 288 287 286 286 286 286 286 286 285 284 283 283 285 285 284 283 283 283 283 282 283 283 283 283 283 284 285 295 299 301 302 303 305 308 310 311 313 313 312 311 311 311 310 310 310 310 310 310 311 311 311 311 312 312 312 312 312 313 314 315 315
293 293 292 291 291 291 290 289 289 288 288 286 286 285 286 287 288 289 289 288 287 288 288 288 287 287 287 286 285 284 284 284 284 283 283 282 282 282 282 282 282 282 282 282 282 282 282 282 284 283 284 288 294 295 297 298 300 304 306 308 309 311 311 310 309 309 309 309 308 309 309 309 309 309 310 310 311 311 312 312 312 312 312 313 313
291 291 290 290 289 288 288 287 287 287 287 286 285 285 285 286 286 288 289 288 285 284 284 286 287 285 285 285 284 285 286 283 282 282 282 281 281 281 281 281 281 281 281 281 281 281 282 282 282 283 283 284 285 289 292 293 295 300 303 304 307 308 308 309 309 308 307 307 307 308 308 308 308 309 309 309 310 311 311 311 312 312 312 312 312
289 289 288 288 287 287 286 286 286 286 286 285 285 286 283 284 286 285 283 284 282 282 283 286 286 283 283 283 285 285 284 283 282 282 281 281 281 281 280 280 281 280 280 280 280 281 281 281 282 282 283 283 283 283 284 285 288 295 299 302 304 307 307 308 307 308 307 307 307 307 306 307 308 308 308 309 309 309 310 310 311 311 311 312 312
287 287 287 286 286 286 285 285 285 286 284 283 283 283 282 282 284 285 283 282 282 283 282 283 284 283 283 285 282 283 286 280 281 281 280 280 280 280 280 279 279 280 280 280 279 279 281 281 281 282 282 282 282 282 282 284 286 290 294 297 300 304 306 307 307 307 307 306 306 306 306 306 307 307 307 308 308 309 309 309 310 310 311 311 311
285 285 285 285 285 285 284 284 284 283 283 283 282 282 282 282 282 283 284 281 279 282 283 282 282 285 286 283 281 282 283 278 277 281 278 278 279 279 280 279 279 280 279 279 279 279 280 280 280 281 281 281 281 281 281 282 285 287 289 292 295 299 302 305 305 305 305 306 305 305 305 306 306 307 307 307 307 308 308 308 309 309 309 310 310
284 284 285 284 284 284 284 283 283 283 283 283 282 282 281 281 281 281 281 282 280 279 282 282 281 282 284 277 277 278 277 276 275 279 277 276 278 278 281 278 278 279 278 278 278 279 280 280 280 280 280 280 280 280 280 281 281 284 285 290 292 295 297 302 303 304 304 305 305 304 305 305 305 306 306 306 307 307 307 307 308 308 308 309 309
283 283 284 284 283 283 283 283 283 283 283 283 282 282 282 282 282 281 281 281 282 280 279 281 281 281 280 278 278 277 276 276 274 277 275 276 276 277 277 277 276 277 278 278 278 278 280 279 279 280 280 279 279 279 279 280 282 281 284 288 293 294 294 296 300 301 303 304 304 305 305 305 304 305 305 305 305 306 306 306 306 306 307 308 309
282 283 283 283 283 283 283 283 283 283 283 283 282 282 282 282 283 282 282 284 281 280 280 280 280 280 280 279 279 277 275 275 275 275 274 275 276 276 275 276 276 276 277 277 277 278 278 279 279 279 279 279 279 279 278 279 281 283 288 291 294 294 294 294 295 298 301 301 302 303 304 304 304 304 304 304 304 304 305 305 306 306 307 307 308
283 282 282 283 283 283 283 283 283 282 283 282 282 282 283 283 282 281 281 281 280 281 279 277 279 279 280 278 278 278 277 277 274 276 276 273 274 275 275 275 276 275 276 276 277 277 277 277 279 278 278 278 278 278 278 278 278 279 283 289 292 293 294 294 293 293 295 297 300 301 302 303 303 303 303 303 303 304 304 305 305 306 306 306 307
282 282 282 283 283 282 282 282 282 282 283 282 282 282 281 281 281 281 280 280 280 279 279 278 279 278 277 277 277 276 276 276 275 275 275 272 272 273 273 275 274 275 275 276 276 277 277 277 279 278 279 277 277 277 277 277 277 278 284 288 290 292 293 293 292 293 293 294 296 297 300 301 301 302 302 302 302 303 304 304 304 305 305 305 306
281 281 282 282 282 282 282 282 282 282 282 281 281 281 281 280 280 280 280 279 279 279 278 277 278 277 277 277 276 276 275 275 275 273 274 273 274 273 273 273 273 274 275 276 276 276 276 276 276 276 276 276 276 276 277 276 277 279 283 286 287 289 290 290 292 292 292 293 293 294 296 298 299 300 300 301 302 302 303 303 303 304 304 305 305
281 281 281 281 282 282 282 282 282 283 282 281 280 280 280 280 279 279 279 279 279 279 280 278 278 277 277 276 276 275 275 275 274 275 273 272 272 273 273 274 273 273 274 276 278 275 275 275 276 276 275 276 276 276 276 276 278 281 284 284 285 286 288 289 290 291 292 293 292 293 294 294 295 296 298 299 300 301 302 302 302 302 303 303 304
281 281 281 281 282 281 282 281 281 280 280 280 280 280 279 279 279 279 278 278 278 279 277 277 277 277 277 277 276 277 277 276 276 276 275 274 273 272 273 273 273 273 275 275 275 275 275 275 275 275 275 275 276 277 276 276 276 282 281 282 283 285 287 289 291 291 292 291 292 292 293 293 292 293 295 297 299 300 301 301 301 302 302 302 302
280 281 280 280 281 280 280 281 280 280 280 280 279 279 279 279 278 278 278 277 277 277 277 276 277 277 276 276 276 277 276 276 276 276 275 275 274 272 273 274 272 272 273 274 275 274 275 274 275 275 274 275 276 275 276 276 276 280 282 279 281 282 284 285 288 290 290 290 290 291 291 291 291 292 294 295 296 298 299 299 300 300 301 301 301
280 281 280 280 280 281 280 280 280 280 279 279 279 279 279 279 278 278 277 277 277 277 277 276 276 276 276 276 276 276 275 276 276 276 275 275 274 273 272 273 273 272 273 273 273 274 273 274 275 274 274 274 274 274 275 275 275 280 281 278 277 280 282 284 288 289 289 289 290 290 290 289 291 291 292 294 295 295 297 298 299 299 299 299 300
281 280 280 280 280 280 279 279 279 279 279 279 279 279 279 279 278 278 277 277 277 277 276 276 277 276 275 276 276 275 275 275 275 275 275 275 274 274 273 272 271 272 271 272 272 273 273 273 275 273 275 275 274 274 275 275 276 280 280 275 274 278 280 284 288 289 288 289 289 289 289 288 289 291 291 291 293 294 295 296 297 298 297 297 297
280 280 280 280 279 279 279 279 279 279 279 279 279 278 278 278 278 277 277 278 277 276 276 276 276 276 275 275 275 275 275 275 275 275 275 275 276 275 274 273 271 268 271 270 271 271 273 272 273 274 273 274 274 274 276 276 275 280 278 275 274 274 279 283 287 287 287 287 288 288 288 288 289 289 290 290 290 291 292 292 293 293 292 292 292
280 280 279 279 279 279 279 278 278 278 278 278 278 278 278 278 277 277 277 276 277 276 276 276 275 275 275 275 275 275 274 275 274 275 275 274 275 274 274 272 273 272 267 267 270 270 271 273 272 273 274 274 274 274 274 273 276 277 275 274 274 273 278 283 284 285 285 287 287 287 287 288 288 288 289 289 290 290 290 291 291 291 291 291 292
280 280 280 279 279 279 278 278 278 278 278 277 277 277 277 277 277 277 276 276 276 276 276 275 275 275 275 275 275 275 274 274 274 274 273 273 274 274 274 274 273 271 271 269 269 272 271 273 273 272 273 273 274 274 274 273 277 277 275 274 274 274 280 281 282 283 284 287 286 286 287 288 288 288 288 289 289 290 290 290 290 290 291 292 293
280 279 279 278 278 278 278 277 277 277 277 277 277 276 276 276 276 276 276 276 276 275 275 275 275 275 274 274 274 274 273 273 273 273 274 273 274 274 273 274 274 272 272 272 267 270 272 270 272 273 272 272 273 273 274 274 275 276 274 273 273 277 279 278 279 281 283 284 284 285 287 287 287 288 288 288 289 289 290 289 289 289 290 291 292
279 279 279 278 278 277 277 277 277 277 277 276 276 276 275 276 275 275 275 275 275 275 274 275 274 274 273 273 273 273 273 273 273 273 272 274 273 273 273 273 273 273 272 271 269 269 273 272 272 272 273 272 273 272 272 273 275 276 274 274 274 277 275 274 278 280 281 282 284 286 286 287 288 288 288 288 288 289 289 289 289 289 289 290 291
279 278 278 278 278 278 277 277 277 276 276 276 275 275 274 274 274 274 274 274 274 274 274 273 273 273 273 273 273 273 273 272 272 272 272 272 273 273 273 272 272 272 271 270 269 269 271 273 272 272 272 272 271 272 272 272 272 273 275 274 274 273 274 274 274 278 280 282 284 285 286 287 288 287 287 287 287 288 288 288 288 288 288 289 289
279 279 278 278 277 277 277 277 276 276 276 275 275 274 274 274 274 274 274 274 273 273 273 273 272 273 272 272 272 272 272 272 271 271 271 271 271 271 271 272 271 271 272 270 269 268 268 270 271 272 271 272 271 272 272 271 272 273 273 273 274 274 274 274 274 275 280 281 283 285 286 286 287 287 287 286 287 288 288 288 288 287 288 288 288
279 278 278 277 277 277 276 276 276 275 275 275 274 274 274 274 273 273 274 274 273 273 272 272 272 272 271 271 271 271 271 270 271 271 271 271 271 271 271 271 270 270 271 271 269 267 267 268 270 270 270 271 271 271 272 273 273 273 273 273 274 275 275 275 275 275 279 282 284 285 285 285 285 286 286 286 286 286 287 287 287 287 287 287 287
278 278 277 277 277 276 276 275 275 275 275 274 274 274 274 274 273 273 273 273 273 272 272 272 271 271 271 271 270 271 270 270 269 269 270 270 270 270 270 271 271 270 271 270 270 270 267 267 268 270 271 270 271 272 273 273 273 273 273 274 274 274 274 275 275 275 278 282 283 283 284 284 284 285 285 286 286 286 286 286 286 286 286 286 285
278 277 277 277 277 277 276 275 275 275 274 274 274 274 274 274 274 274 273 273 273 272 272 272 273 271 271 271 271 270 270 270 269 269 269 269 269 270 269 270 270 270 271 271 270 270 268 267 268 270 271 271 272 272 272 272 273 273 273 273 273 274 274 275 276 277 279 281 281 281 282 283 283 284 285 285 285 285 285 285 285 285 285 284 284
278 278 277 277 277 277 276 276 275 275 275 274 273 273 273 274 274 274 273 273 273 272 271 271 272 271 271 271 271 270 270 270 270 269 269 269 269 269 269 269 269 269 269 270 270 270 269 268 268 268 270 270 271 272 273 273 272 272 272 273 273 274 274 274 275 276 277 277 276 277 279 279 281 282 282 283 283 283 284 284 284 284 283 282 283
278 278 278 277 277 277 277 276 275 275 275 274 273 274 274 274 274 273 273 272 271 271 271 271 271 271 271 271 271 270 270 270 270 270 269 269 269 269 269 269 269 268 268 268 269 269 269 268 268 269 270 271 272 271 273 273 273 272 271 271 271 273 274 274 273 275 275 275 277 279 278 278 279 277 279 281 281 282 282 283 283 282 282 282 283
278 278 278 277 277 277 276 276 275 275 274 274 274 273 273 273 274 273 272 272 272 271 271 271 271 271 271 271 271 271 271 271 271 270 270 269 269 269 269 269 269 268 268 267 267 268 268 268 268 269 271 272 272 273 273 272 271 271 273 271 270 271 272 274 273 273 274 274 273 273 275 276 275 276 278 278 279 280 281 281 281 281 280 282 283
278 278 278 278 277 276 276 276 275 275 274 274 274 274 273 273 273 273 272 272 273 272 271 271 271 271 271 271 271 271 272 274 275 275 273 273 270 269 269 269 268 268 266 265 265 265 265 267 268 271 272 272 272 271 270 270 270 270 271 272 271 273 273 272 272 273 273 272 272 272 271 272 272 272 273 273 274 277 277 279 279 279 281 282 283
278 278 277 277 277 276 275 275 275 275 274 275 276 278 277 274 273 273 273 273 273 272 271 271 271 271 271 271 271 275 275 276 277 278 278 278 277 273 270 269 268 267 264 262 263 264 266 267 269 271 271 271 271 270 270 271 272 272 272 272 271 272 271 270 270 271 272 271 270 269 270 272 272 272 273 273 275 276 276 276 276 279 280 282 282
277 277 277 276 276 276 275 275 274 274 274 275 278 280 280 279 275 274 273 273 272 272 271 271 271 271 271 271 270 273 275 276 276 278 279 279 279 279 278 276 274 269 264 264 264 265 267 269 271 272 272 271 271 271 272 272 272 272 272 272 271 270 268 267 265 269 272 270 269 268 268 272 272 271 272 272 273 274 276 276 279 280 280 282 282
277 276 276 276 276 276 275 275 274 274 274 277 280 281 282 281 278 274 274 273 272 272 272 271 271 270 270 271 271 271 271 272 272 273 277 279 280 279 279 279 278 278 276 270 268 268 271 271 272 273 272 271 271 272 271 271 271 272 273 272 270 269 267 267 267 266 270 271 268 267 268 272 272 271 270 271 273 273 273 276 279 280 281 282 282
277 276 276 276 275 275 275 275 274 274 274 278 281 283 283 283 281 277 274 273 272 272 272 271 270 270 270 270 270 271 271 274 274 271 270 271 277 279 279 279 278 278 279 279 278 275 275 274 273 272 272 272 271 271 272 272 274 272 271 270 269 269 268 267 267 267 268 270 269 268 267 269 270 269 269 271 271 271 272 275 278 280 281 281 281
276 276 276 276 276 275 275 274 274 274 274 277 281 283 284 284 283 279 273 273 272 272 272 271 271 270 270 269 269 269 270 271 272 271 270 269 269 270 270 270 269 272 277 279 279 279 278 276 274 271 272 273 271 272 273 274 273 270 270 268 269 268 267 267 267 267 268 270 268 266 264 266 268 268 267 269 271 271 271 275 278 279 280 280 280
276 276 276 275 275 275 275 275 274 274 274 278 281 283 284 284 284 282 273 272 272 272 271 271 271 270 270 270 270 269 269 269 270 271 270 269 267 267 266 266 267 268 269 271 272 274 275 275 275 274 274 274 273 273 274 275 273 272 271 269 269 268 267 267 266 267 267 269 268 266 261 265 268 267 267 269 270 270 270 273 275 277 278 279 280
277 276 276 276 275 275 275 274 274 273 274 279 281 283 284 285 285 281 273 272 272 271 270 271 271 271 270 270 270 269 269 269 272 276 274 270 267 264 265 265 266 267 269 273 276 277 277 276 275 275 275 275 276 275 277 275 273 271 271 270 267 264 263 262 261 263 263 267 268 265 263 264 267 266 267 269 269 268 269 269 273 276 277 278 279
277 276 276 276 276 275 275 274 273 274 274 277 280 282 284 285 284 279 274 273 272 270 270 271 271 271 270 270 270 270 269 269 272 276 278 277 268 265 265 265 266 267 269 272 277 279 280 280 280 279 279 279 278 278 277 276 274 272 269 265 261 260 261 260 261 261 261 265 266 266 266 264 266 267 266 267 267 267 267 268 269 273 276 277 278
276 276 276 276 275 275 275 274 274 274 274 276 280 282 283 285 284 279 276 274 273 272 271 271 271 270 271 273 272 270 270 270 274 277 278 277 272 269 268 267 267 268 270 274 275 276 279 279 279 278 277 277 275 274 273 273 273 272 265 262 261 260 259 260 260 261 262 264 265 268 265 264 266 267 265 266 266 266 267 268 269 270 273 274 276
277 276 275 275 275 274 274 274 276 274 274 275 278 280 282 284 284 280 276 274 273 273 273 272 272 271 270 272 274 274 272 272 276 277 278 277 273 272 272 271 271 271 272 274 274 272 273 272 271 271 271 272 268 266 266 271 271 270 268 264 261 259 259 260 260 261 260 259 265 269 264 265 265 266 265 263 261 265 267 267 268 269 269 270 270
Wind_Speed
5 5 5 5 4 4 4 5 5 4 5 5 4 5 6 5 6 5 5 5 6 6 6 6 6 6 8 8 8 9 8 8 8 8 8 8 9 15 21 22 22 22 23 23 23 23 22 22 21 21 22 23 23 23 22 21 21 20 22 21 21 21 21 21 20 21 20 20 21 21 22 21 21 21 21 21 20 18 18 20 20 18 15 14 14
6 5 6 5 6 5 6 5 5 4 5 5 4 5 6 6 6 6 6 5 6 5 6 6 6 6 8 9 8 8 8 8 8 8 7 8 8 12 21 21 23 23 23 23 24 23 23 23 23 22 22 21 22 22 21 22 21 22 22 22 22 21 21 21 21 21 20 21 20 20 20 21 21 21 22 22 21 22 21 19 18 20 21 18 14
6 6 5 6 6 6 6 5 5 5 5 5 5 5 6 6 5 5 6 6 6 5 5 7 6 9 7 9 8 8 8 7 8 8 8 7 7 9 12 21 22 23 23 24 24 24 24 24 24 23 23 22 22 21 21 22 23 23 23 23 22 22 22 22 21 21 21 21 21 22 22 22 21 22 22 22 23 23 24 24 22 20 19 20 19
6 6 6 6 6 6 5 6 6 5 5 5 6 6 6 6 6 5 6 5 6 5 4 7 7 8 8 9 8 9 8 8 8 9 8 8 8 8 9 10 18 22 23 24 24 24 24 24 24 24 24 23 23 22 22 23 23 23 23 23 22 23 22 22 22 22 21 21 21 21 21 22 22 23 23 24 24 25 24 25 25 24 21 19 19
6 7 7 6 6 7 6 6 5 5 6 6 7 5 6 6 7 5 6 6 6 6 6 8 9 7 8 8 8 9 8 8 8 8 8 8 8 8 8 9 9 14 20 22 23 24 24 24 24 24 24 24 24 23 22 22 23 23 23 22 22 23 23 23 23 23 22 23 23 22 23 22 22 22 23 24 24 24 24 24 25 25 24 23 20
7 7 6 7 6 7 7 6 5 5 6 5 6 5 6 7 6 7 6 6 7 6 7 8 7 7 8 7 9 8 8 9 9 8 7 7 7 8 8 8 9 8 9 17 22 22 23 24 24 24 24 24 24 23 23 22 22 22 23 24 23 23 22 22 23 23 23 23 23 23 23 23 23 23 24 24 24 24 24 24 24 24 24 23 23
6 8 7 6 6 7 6 5 5 5 6 5 6 5 6 6 4 8 6 6 7 7 7 8 8 9 8 7 8 8 9 9 8 7 7 6 8 8 8 8 8 8 8 8 12 19 22 23 23 24 24 24 24 23 23 23 23 22 23 23 22 22 23 22 21 21 21 22 22 23 23 23 24 24 25 25 25 25 25 24 24 23 23 23 24
6 7 8 5 6 7 6 6 6 6 6 5 5 6 6 6 5 4 9 7 9 8 7 9 8 9 7 7 7 8 8 7 7 7 6 7 8 8 8 8 9 8 8 8 8 11 20 21 22 23 24 24 24 24 23 23 23 23 23 23 23 22 22 23 22 21 21 21 21 21 22 23 24 25 25 26 26 26 25 25 24 24 24 24 24
7 6 8 7 7 7 6 6 6 7 7 6 7 4 5 8 7 6 6 8 10 9 8 8 9 8 8 8 7 8 8 7 6 5 5 9 8 8 8 8 8 9 8 8 8 8 13 20 20 22 22 23 23 24 24 24 24 24 23 24 24 24 23 24 24 25 24 24 25 25 24 24 25 25 25 26 27 27 27 26 25 25 24 24 24
8 7 8 7 6 7 6 6 7 7 7 6 6 5 6 7 8 6 5 8 8 9 9 8 8 8 8 8 7 8 7 7 6 6 8 8 8 8 7 7 8 8 8 8 8 8 8 13 18 19 21 22 23 24 25 25 24 24 24 24 23 23 24 23 24 24 25 25 25 25 25 24 25 25 26 25 25 25 26 26 26 26 25 25 25
8 7 9 7 7 7 7 6 6 6 7 8 7 6 7 6 10 8 8 7 7 7 8 8 9 8 8 7 7 7 6 6 6 8 7 7 7 6 6 8 7 8 8 8 7 8 9 8 8 8 11 22 22 23 24 25 24 24 24 24 24 24 24 24 24 23 23 23 23 23 24 24 25 25 25 25 26 25 25 26 26 26 26 26 26
7 7 8 7 7 7 7 5 4 6 8 8 6 6 7 9 8 10 10 8 7 6 6 10 9 9 8 7 7 6 7 7 8 8 7 7 6 6 8 6 8 7 7 7 7 7 8 8 8 8 8 13 21 20 22 23 24 24 25 25 24 24 24 24 24 24 23 23 24 24 24 25 25 25 25 25 25 25 25 25 25 26 26 26 27
5 6 8 8 7 7 7 5 5 7 8 7 5 5 4 5 7 6 8 10 6 5 3 3 11 7 6 6 7 5 6 7 8 7 7 5 6 7 6 8 7 8 6 6 7 8 7 8 7 7 8 7 10 17 20 21 22 23 24 25 25 24 24 24 24 24 24 24 24 24 25 25 25 25 25 25 25 26 26 26 26 26 26 26 27
5 6 7 7 8 7 6 6 6 7 7 5 5 4 4 5 6 8 5 6 4 3 4 1 3 5 7 3 3 3 4 7 8 7 6 6 6 7 6 7 8 6 6 7 8 8 8 8 7 8 8 8 8 8 10 12 14 22 23 24 25 24 24 24 24 24 25 25 25 25 25 25 25 25 25 26 26 26 26 26 26 26 26 26 26
5 5 7 6 7 8 7 6 5 6 8 7 5 6 5 5 5 9 7 3 4 4 5 2 4 3 2 5 1 1 1 4 2 5 6 5 5 7 6 6 6 5 5 6 6 7 7 7 8 8 8 9 8 8 9 10 14 21 22 24 25 25 24 24 25 25 25 25 25 26 26 26 25 26 26 26 26 26 27 27 26 26 26 26 26
5 6 6 6 7 8 6 6 6 4 6 8 6 6 5 5 6 5 7 6 3 6 6 4 3 6 3 0 1 2 1 1 2 2 3 3 6 6 6 6 6 6 6 8 7 6 6 6 8 7 8 8 8 9 9 9 16 19 21 21 25 25 25 25 25 25 25 25 26 25 26 26 26 27 27 27 27 27 27 27 27 27 26 27 26
6 6 7 7 6 6 7 6 7 5 5 8 7 5 4 4 3 4 3 8 4 2 6 6 6 3 5 3 1 1 1 1 1 0 4 3 5 5 6 7 7 6 6 6 6 6 6 7 7 7 8 8 8 8 8 9 10 9 11 14 22 23 24 24 25 26 26 26 26 26 26 26 26 27 27 27 27 27 27 27 27 27 27 27 27
5 6 6 6 7 6 6 7 7 6 6 7 5 5 5 6 3 4 6 3 9 5 3 4 6 8 6 2 1 2 4 2 2 0 2 0 3 3 5 6 4 5 5 6 7 6 6 6 6 7 7 7 8 8 7 8 8 8 8 13 23 22 22 23 24 24 25 25 26 26 27 27 28 27 27 27 27 28 28 27 27 27 27 27 27
5 5 6 5 6 6 7 7 7 6 5 6 6 6 5 5 4 7 5 4 5 6 6 3 4 7 6 5 8 5 3 3 1 1 2 2 4 4 4 5 4 4 5 4 5 5 5 5 6 6 6 6 6 6 6 7 11 12 16 21 22 23 23 23 22 22 23 24 25 26 26 27 27 27 28 28 28 27 27 27 27 27 27 27 27
7 5 5 5 7 7 7 8 7 5 5 6 7 5 6 5 5 5 5 5 5 8 5 1 6 2 4 7 7 7 7 7 4 3 3 1 1 4 2 4 5 3 3 5 5 5 5 5 5 5 5 5 5 6 7 7 7 8 8 20 21 22 22 22 22 22 23 24 25 25 26 26 26 27 28 28 29 28 28 27 27 28 28 28 27
5 6 4 5 6 8 7 7 7 6 6 6 6 6 6 6 6 6 6 6 5 3 6 5 6 6 5 4 6 6 6 5 3 4 3 1 1 1 4 5 1 0 2 2 4 4 4 3 4 4 5 5 5 6 7 7 8 7 10 20 22 22 22 22 21 21 22 23 24 25 25 26 26 27 27 28 28 28 28 28 27 28 28 28 28
5 4 6 5 7 7 7 7 7 6 6 7 6 7 6 7 5 6 6 8 5 5 6 4 4 1 2 5 4 2 4 4 4 4 3 2 2 2 1 3 6 5 2 5 4 3 4 3 4 4 4 5 5 6 6 7 7 7 11 20 21 21 22 21 21 21 22 22 23 24 24 25 26 26 27 27 27 27 27 28 28 28 28 29 29
6 5 5 6 7 6 6 6 6 6 7 6 6 7 6 7 6 7 7 8 6 7 6 4 4 4 4 4 5 4 3 3 2 2 3 1 2 2 3 2 2 5 4 5 4 3 3 3 3 3 3 4 4 5 5 5 7 11 17 18 20 20 21 21 21 22 22 22 23 23 24 24 25 26 26 26 27 27 27 27 28 28 29 28 28
5 6 6 5 6 6 5 6 6 6 7 6 6 6 6 6 7 7 7 6 5 6 5 6 5 5 4 4 5 5 5 6 4 4 5 2 2 1 2 3 2 4 5 5 2 2 3 3 2 3 3 3 3 4 5 5 7 16 12 15 19 20 21 21 22 22 22 22 23 23 24 24 24 25 25 26 26 27 27 27 27 28 28 28 28
6 7 5 6 6 7 6 7 6 6 7 7 6 6 6 7 7 7 6 5 5 5 6 4 4 6 6 3 5 5 5 4 5 5 3 4 4 1 2 1 3 4 2 1 2 3 1 2 1 2 3 5 5 6 6 6 7 13 16 10 20 19 21 21 22 22 23 23 23 23 24 24 24 24 25 25 26 26 27 27 27 27 28 28 28
9 8 7 6 5 5 6 6 6 6 6 7 6 6 7 8 7 7 6 5 5 6 6 5 5 4 4 6 4 5 5 4 4 5 5 4 2 1 1 2 2 4 3 2 2 1 2 1 1 2 4 4 5 5 6 7 7 14 18 11 12 18 20 20 21 22 23 23 23 24 24 24 24 24 25 25 26 26 26 27 27 27 28 28 28
8 7 7 7 6 6 6 7 7 7 6 7 6 6 7 7 6 7 6 5 6 7 6 6 7 5 4 5 5 5 5 4 5 4 4 3 4 4 3 3 4 0 2 2 2 1 2 3 1 2 3 4 5 6 7 7 9 16 15 8 7 15 19 20 21 22 22 23 23 23 24 24 24 24 24 25 26 26 27 27 27 27 27 28 28
6 8 6 7 8 7 6 7 6 6 6 7 7 7 7 8 6 6 6 3 6 6 6 6 7 6 6 4 6 4 4 4 4 4 3 2 3 3 2 1 2 3 2 3 2 2 2 1 1 1 4 4 5 6 8 8 7 15 12 7 7 8 16 20 22 22 22 22 23 24 25 24 24 24 25 25 25 26 27 27 27 27 27 27 27
7 6 8 6 7 8 8 7 6 6 6 6 7 7 6 6 7 6 6 4 5 6 5 7 6 6 5 5 6 5 4 3 3 4 3 2 2 2 3 4 3 2 2 2 3 4 3 1 0 2 2 6 6 6 6 5 8 11 7 7 8 7 14 20 21 21 22 23 23 23 24 24 25 25 25 26 27 27 27 27 27 27 27 27 28
7 7 7 8 7 7 8 7 6 6 7 6 6 6 6 6 5 5 5 6 6 5 5 6 6 6 6 5 5 5 3 3 4 2 2 2 2 2 1 1 3 4 4 3 5 3 3 2 2 3 3 5 5 6 5 5 9 10 6 7 7 8 18 20 20 21 22 23 24 24 24 25 25 25 26 27 28 28 28 28 28 28 28 27 28
8 8 8 8 7 7 7 7 7 7 6 7 6 6 6 7 5 6 5 6 7 6 5 6 6 7 7 6 4 5 3 4 3 2 1 2 2 2 2 1 1 3 4 3 1 5 4 5 3 1 2 3 5 5 4 5 7 10 6 7 7 14 19 14 18 20 21 23 24 25 25 26 26 26 27 28 29 28 29 28 28 28 27 28 28
7 8 8 8 9 9 7 8 7 6 7 6 6 6 5 5 6 6 5 6 7 7 6 5 5 6 7 6 5 5 3 3 3 2 2 1 2 3 2 3 1 2 2 4 4 8 1 2 4 3 2 4 5 6 5 4 5 10 6 7 8 13 9 8 14 18 20 22 23 25 26 26 27 27 27 28 29 28 29 28 28 27 27 27 27
8 8 8 9 9 8 8 8 8 8 7 7 5 5 5 5 4 5 5 5 6 5 6 6 5 6 6 6 5 4 3 4 3 3 3 2 2 2 1 2 2 1 2 2 4 8 5 2 1 3 3 4 5 3 7 6 7 6 6 6 7 7 8 7 8 14 19 21 23 25 26 27 27 28 28 28 28 29 28 27 27 26 27 27 28
8 9 9 8 8 8 8 8 7 7 7 7 7 6 6 5 4 4 6 6 6 6 5 6 5 5 6 7 5 4 3 4 3 3 3 2 2 2 1 3 3 2 1 3 3 3 7 2 6 3 3 3 7 4 6 10 9 8 8 6 6 5 7 8 8 8 17 20 23 24 25 27 27 28 27 27 28 27 28 27 27 27 27 28 29
7 8 9 9 9 8 7 7 7 7 8 8 6 6 5 6 6 5 6 7 8 8 6 6 6 5 6 6 5 4 3 4 3 3 2 3 2 3 3 2 2 2 2 1 2 3 5 6 1 5 3 5 5 8 7 6 7 7 9 9 8 7 6 6 7 7 14 20 23 25 25 25 26 27 27 27 27 27 27 27 28 28 29 29 29
9 7 6 8 8 8 8 8 8 8 7 7 6 6 7 7 7 8 7 6 6 6 7 7 6 6 7 6 5 6 4 5 3 3 3 3 4 3 4 3 3 3 2 2 2 3 2 6 3 3 7 7 6 5 7 7 6 7 7 8 7 7 7 6 6 7 11 20 23 24 24 24 25 26 26 26 27 27 28 30 31 30 29 28 27
8 8 7 7 8 9 10 10 10 8 8 8 8 7 6 5 7 7 7 6 6 6 6 6 7 7 7 7 7 6 5 5 4 4 4 4 4 4 5 4 4 4 2 3 3 3 4 7 7 5 5 6 6 7 6 8 9 6 4 6 7 7 7 6 6 7 14 19 20 21 22 23 25 25 26 28 29 30 31 30 29 28 27 26 26
8 8 9 8 9 10 9 10 9 9 9 9 9 8 7 7 7 6 6 6 6 5 5 5 6 6 7 6 7 6 6 7 6 5 5 6 4 5 5 5 4 3 3 3 3 4 5 6 5 8 5 7 9 5 5 6 9 11 10 5 3 4 7 9 8 7 7 7 8 10 14 17 21 27 27 28 29 29 28 27 26 25 25 25 25
9 9 8 8 7 8 8 8 8 9 9 8 7 7 7 8 9 8 7 6 5 4 4 5 5 5 6 6 6 7 7 6 6 7 6 5 6 6 6 6 4 4 4 4 4 4 4 5 5 5 8 6 6 10 6 4 5 6 9 12 12 8 6 7 10 11 8 9 11 17 16 18 22 19 22 25 26 27 27 26 25 25 24 25 24
9 9 9 9 7 6 6 7 6 6 6 7 7 7 7 8 8 7 7 7 6 4 4 4 5 5 5 6 6 6 7 7 7 6 7 7 5 6 6 5 4 4 5 4 4 4 4 4 6 7 7 9 6 4 5 6 6 4 3 7 11 12 12 9 7 10 12 10 10 10 11 15 15 17 20 20 22 25 25 23 23 23 24 23 24
7 7 6 6 7 7 5 6 6 6 7 7 7 8 9 9 8 8 7 7 7 6 5 5 5 5 5 5 5 6 6 8 11 9 8 8 6 6 5 5 5 5 4 4 4 3 3 4 6 6 8 9 7 8 8 6 6 8 8 7 8 9 10 12 9 7 8 10 10 10 10 11 12 10 11 11 11 18 17 20 18 21 21 24 29
7 7 7 7 7 8 8 7 6 6 6 6 8 14 12 10 9 7 7 7 7 6 6 6 6 6 6 5 5 9 10 11 12 14 14 14 13 9 7 6 6 5 5 5 5 4 4 5 5 6 9 7 7 7 7 6 7 8 8 9 11 11 10 11 11 3 7 7 11 14 11 9 10 11 9 11 10 12 10 10 9 17 25 30 28
8 7 7 8 8 7 8 7 8 7 7 7 13 16 16 15 10 8 8 7 7 7 6 7 8 7 6 6 5 7 9 10 10 15 15 15 16 16 14 13 10 9 6 6 5 5 4 6 6 6 7 9 10 7 7 8 7 7 9 9 10 10 10 10 13 13 3 9 12 13 13 9 8 10 11 11 12 12 11 11 25 29 28 26 26
7 5 7 8 7 7 7 7 8 8 8 9 15 17 17 16 12 8 7 7 7 7 8 8 7 6 7 7 6 6 6 6 5 6 10 15 16 16 15 15 15 16 13 10 7 5 6 6 6 6 5 8 9 8 7 6 8 9 8 9 10 9 10 10 10 11 10 10 13 13 15 10 8 10 11 10 11 12 14 21 27 26 26 26 27
5 7 9 8 9 8 8 9 9 8 7 11 17 18 18 17 16 11 6 7 7 8 8 8 7 7 6 7 7 6 6 10 8 6 6 6 10 14 14 15 15 16 16 17 15 9 6 6 6 6 5 7 9 7 5 9 10 9 7 8 9 9 9 10 10 11 12 11 12 13 13 12 9 10 11 11 12 13 14 18 25 26 27 27 27
8 8 7 9 8 9 9 9 9 8 9 12 18 19 18 18 17 13 6 7 7 7 9 8 7 8 8 8 7 7 6 6 6 7 6 6 6 6 6 4 4 7 12 14 15 16 12 7 4 6 5 6 6 8 9 9 8 6 7 8 9 9 9 10 12 12 11 9 9 10 13 11 8 10 12 11 10 13 11 18 26 27 26 26 26
10 11 10 10 9 9 9 8 8 8 9 13 18 20 19 19 18 13 7 6 6 7 7 7 8 7 7 7 7 7 6 6 7 7 7 7 5 6 6 6 5 6 6 6 6 5 5 5 5 7 7 5 7 9 9 6 6 7 6 9 9 7 9 9 8 7 7 5 8 7 8 12 9 10 11 11 13 14 12 16 23 25 25 25 26
6 5 6 6 9 9 9 8 8 10 9 16 18 19 20 19 20 9 8 8 8 8 7 8 7 7 7 7 7 7 7 7 9 15 12 7 6 6 8 7 6 6 7 8 12 11 9 7 7 8 7 7 11 11 8 6 4 4 5 4 4 5 6 8 9 5 4 5 6 7 8 11 9 11 13 12 12 14 14 12 18 23 24 26 27
8 9 9 10 9 9 9 9 10 11 8 12 18 19 19 20 15 8 8 7 7 8 9 8 7 7 7 7 8 7 7 8 11 15 17 14 7 9 8 8 7 6 7 7 13 16 16 16 16 15 15 16 14 11 12 15 11 7 3 4 6 2 5 8 10 5 5 6 6 5 7 11 9 11 14 11 11 13 13 12 10 15 25 26 25
10 11 9 7 7 8 9 11 11 11 10 10 16 17 18 19 14 9 8 8 8 8 8 7 6 7 8 14 12 9 9 9 13 17 18 14 9 9 9 8 9 9 8 6 6 8 15 17 16 15 15 13 8 9 10 12 12 8 2 6 4 1 5 4 8 8 9 7 6 4 7 9 12 11 13 11 11 8 9 9 11 15 20 18 25
8 6 6 7 7 7 8 10 8 10 9 8 14 16 18 19 14 7 7 7 8 9 8 9 7 7 7 10 18 16 12 11 16 17 19 15 9 9 9 9 10 11 9 7 7 6 5 4 4 3 3 3 2 3 5 10 11 8 5 4 3 4 6 5 6 8 9 3 3 7 10 10 11 10 9 13 12 10 6 7 10 8 9 10 13
Wind_Direction
105 103 100 95 89 87 91 85 82 90 95 78 86 98 87 83 85 86 89 81 77 72 68 62 63 67 82 78 75 74 71 67 64 60 54 53 49 42 43 44 45 44 43 42 41 40 39 37 35 34 33 32 32 32 29 26 25 22 21 19 18 19 19 18 15 15 14 14 12 9 7 4 2 0 357 356 354 345 337 331 324 319 317 319 322
113 103 103 96 90 81 76 74 79 71 74 83 70 82 91 86 83 90 87 78 78 67 72 76 64 74 79 86 76 79 77 72 66 62 61 52 51 47 41 43 41 40 40 39 39 38 37 36 34 33 32 31 31 31 28 27 26 25 24 24 20 19 20 19 14 11 10 11 10 9 5 4 3 1 360 357 354 351 348 341 333 323 315 314 312
103 103 95 95 90 90 87 85 75 62 70 73 60 71 75 79 77 77 86 80 72 60 68 76 71 79 73 81 82 78 73 68 66 62 59 52 50 50 39 39 40 38 36 36 36 36 35 34 33 32 31 30 30 30 28 27 27 26 25 25 23 22 21 19 15 12 10 10 9 7 4 3 2 1 359 357 356 353 351 349 344 337 327 314 308
101 103 104 101 96 90 86 86 82 71 68 75 76 69 78 76 71 69 72 80 78 67 55 81 75 78 79 79 79 77 70 66 64 59 57 53 48 47 43 37 36 37 35 33 33 33 33 33 32 31 31 29 29 28 28 27 26 24 24 23 23 24 21 20 18 16 12 10 8 7 4 3 3 2 0 359 357 355 353 350 348 347 339 328 319
97 100 101 97 98 98 85 79 80 84 83 76 80 79 80 81 72 67 66 65 77 66 67 73 79 77 79 77 79 73 70 66 63 58 54 51 50 46 45 40 37 33 32 31 30 31 32 32 31 30 30 29 28 28 27 26 25 25 22 21 22 24 19 18 17 16 13 13 11 9 7 3 1 1 360 358 356 354 351 349 348 347 346 341 332
106 94 91 94 91 90 93 82 76 75 76 76 79 70 77 73 74 78 68 71 62 66 81 81 77 76 77 76 76 73 69 68 62 57 53 53 50 49 43 41 37 35 28 28 28 29 31 31 31 29 29 29 28 27 26 25 25 24 23 21 18 18 17 15 17 17 15 14 12 11 8 6 4 2 0 357 353 350 348 346 345 344 342 342 340
88 104 89 95 95 89 78 74 74 74 75 62 81 76 78 74 58 93 81 78 72 63 77 80 82 77 73 76 77 79 71 66 60 56 51 51 52 48 44 41 36 35 30 28 23 23 28 29 30 28 26 27 27 26 25 24 23 22 21 20 19 17 13 11 11 12 11 10 9 7 5 2 360 359 356 354 352 350 346 344 343 341 339 338 338
86 95 98 87 95 91 84 84 81 82 77 75 73 77 85 79 48 80 101 76 87 71 69 81 75 75 69 68 71 73 74 65 59 55 47 54 50 47 44 41 38 36 33 30 27 20 24 27 29 27 26 27 27 26 24 23 21 21 19 18 17 16 15 10 9 9 5 4 3 1 1 359 357 357 355 353 350 347 346 343 342 340 339 338 336
85 86 101 101 97 95 89 87 83 86 83 75 71 59 86 90 58 36 85 107 94 93 79 82 82 76 72 70 61 70 67 63 57 55 52 54 49 47 44 41 40 37 35 31 27 23 19 26 27 26 24 27 28 28 26 22 21 19 18 17 18 16 13 9 7 9 8 6 4 0 355 353 351 349 350 350 348 346 344 342 340 338 337 337 336
90 95 96 95 96 100 94 84 85 84 82 79 75 64 65 84 86 48 58 97 98 101 95 87 85 81 71 67 64 67 65 63 60 55 53 50 47 46 43 44 41 37 35 33 30 25 24 22 25 27 24 28 29 30 27 23 19 18 16 14 14 14 13 10 6 3 1 359 357 356 357 353 348 347 345 345 344 343 341 340 338 337 336 333 333
100 105 105 104 97 92 91 78 84 93 89 80 70 68 74 73 97 87 63 61 92 93 103 98 86 79 73 61 64 64 65 64 60 56 51 49 48 43 45 39 40 36 34 32 27 29 27 24 25 26 21 27 30 29 27 23 18 17 16 12 11 11 10 9 6 4 2 358 355 352 350 348 346 344 342 341 341 340 340 338 338 336 334 333 332
100 102 103 103 100 93 90 75 79 93 89 83 76 76 95 95 84 102 97 76 57 67 88 99 83 76 74 63 55 62 61 62 59 54 51 45 42 41 44 35 40 34 34 28 32 31 30 28 29 26 27 25 28 27 25 22 16 15 15 10 7 7 5 4 3 1 358 355 353 351 349 346 343 342 340 339 339 339 338 338 336 335 333 331 330
91 102 104 100 95 96 93 80 80 84 87 91 96 87 74 95 98 70 100 101 57 17 19 70 107 75 59 63 54 34 58 62 60 52 48 41 39 49 36 39 32 32 23 26 32 31 32 31 30 30 29 27 22 23 23 20 15 13 12 9 3 2 1 359 359 358 356 354 351 350 347 346 344 342 341 340 338 337 337 336 335 333 330 329 327
87 94 96 105 106 97 92 95 92 92 92 94 83 78 82 87 112 79 25 88 71 359 333 60 55 130 127 96 52 33 53 55 56 43 41 34 38 48 38 41 32 22 18 29 29 28 28 27 30 32 31 29 25 20 17 14 10 10 9 7 2 0 359 358 358 357 356 354 352 349 347 345 344 342 341 339 338 337 335 333 332 330 328 326 324
89 91 99 95 100 102 99 100 90 103 100 82 82 75 70 77 83 118 104 60 94 32 17 30 142 122 108 99 156 72 301 9 14 38 24 30 28 44 41 42 33 21 17 34 32 26 29 27 32 32 30 29 25 22 16 12 8 8 7 6 3 3 0 359 358 357 355 353 351 349 347 345 344 342 341 339 338 336 334 333 331 329 327 325 323
85 93 95 92 100 104 106 92 80 70 103 105 89 80 74 74 88 90 119 99 48 36 17 16 108 139 134 31 182 120 135 14 345 312 347 12 34 33 37 33 21 17 22 28 19 27 28 32 36 35 34 31 29 24 21 13 7 6 2 359 4 3 359 357 355 355 353 352 350 348 346 345 344 342 341 339 338 336 334 332 330 328 327 325 324
87 91 101 101 97 103 102 97 93 81 91 91 85 92 86 86 83 90 67 128 106 105 24 21 47 9 143 110 53 53 186 198 83 251 357 359 8 23 32 32 20 16 20 15 18 26 25 31 33 35 33 32 29 28 24 12 9 356 354 353 2 2 359 356 354 352 352 351 349 347 346 345 343 342 341 339 337 336 334 331 329 328 326 325 322
87 93 97 104 100 101 104 103 96 85 81 93 104 90 68 72 47 103 88 54 127 116 87 29 59 46 50 90 142 170 169 217 103 131 322 235 311 55 37 25 25 17 15 21 18 15 25 29 35 36 34 33 30 30 23 13 8 357 356 356 1 1 359 357 354 352 351 350 348 346 345 343 342 341 340 338 336 335 333 331 329 327 324 324 323
89 93 99 103 106 104 102 95 91 89 90 96 86 78 70 58 44 72 74 104 108 101 117 148 77 41 37 63 66 56 102 119 128 96 37 318 10 344 336 360 4 25 21 21 19 20 17 34 37 41 38 35 31 27 23 13 7 4 358 360 360 359 357 356 354 351 350 348 346 345 343 342 341 340 338 336 335 333 331 329 328 326 325 324 323
104 97 105 111 112 101 96 95 94 90 95 89 96 94 87 65 69 74 68 52 79 117 130 359 104 32 11 48 52 51 50 66 86 140 147 149 305 323 289 340 351 22 17 18 17 21 21 26 42 42 44 32 27 24 20 10 3 354 348 358 358 356 355 354 352 351 349 347 345 343 342 340 340 338 337 335 333 332 330 329 328 327 326 324 323
94 107 104 105 100 105 101 100 101 101 101 97 90 88 91 97 82 72 77 62 60 84 102 108 111 145 120 63 65 69 59 62 63 66 120 122 276 221 306 327 5 349 12 7 6 18 32 41 57 51 40 31 23 23 16 9 2 351 353 357 355 354 354 352 351 350 348 345 344 342 340 339 338 337 335 334 331 330 330 328 328 328 327 326 324
94 99 100 95 100 99 102 107 112 111 102 104 103 93 89 86 87 94 90 83 55 70 94 95 86 82 97 151 112 79 57 47 44 69 49 92 142 285 297 2 349 308 357 9 3 8 28 58 72 55 41 37 24 22 16 10 358 343 355 356 353 352 351 350 348 347 345 344 342 340 339 338 337 336 334 332 330 330 329 329 329 328 328 327 325
114 94 97 103 97 100 110 112 109 109 107 105 104 104 101 98 96 87 80 93 93 92 84 70 84 75 60 89 120 136 159 141 156 88 117 92 42 326 319 262 226 305 302 337 341 348 62 62 79 57 49 30 30 17 15 7 353 351 357 354 352 350 349 347 346 345 343 343 341 338 337 337 336 334 332 330 329 328 327 328 328 327 326 325 324
116 113 106 105 110 109 111 109 107 108 103 108 105 106 108 100 89 88 90 87 95 96 100 103 97 88 72 75 88 93 82 106 140 128 123 174 130 215 257 300 309 227 285 317 322 0 41 80 82 81 35 43 23 22 5 4 352 351 357 357 351 349 347 345 343 343 342 341 339 337 336 335 334 332 330 328 327 326 326 326 326 326 325 325 324
145 130 133 133 132 126 124 122 117 112 118 109 111 112 108 102 100 97 100 104 110 112 109 110 109 110 115 73 91 84 91 96 109 120 93 112 117 108 269 182 236 300 294 37 307 309 126 68 90 23 44 20 19 14 4 360 357 349 355 358 351 346 344 341 341 341 340 339 337 336 335 334 332 330 328 326 326 325 324 323 323 323 323 324 323
153 150 151 143 133 128 125 118 120 121 118 118 119 117 112 111 113 112 112 116 107 109 114 114 101 106 109 105 89 97 93 90 115 113 129 116 121 156 241 309 190 265 298 343 300 14 317 95 48 34 24 22 14 9 6 356 350 347 354 354 344 343 340 338 339 339 339 338 336 335 334 333 330 328 327 325 325 323 322 321 321 321 322 322 322
155 148 148 143 135 131 132 129 130 127 128 125 121 114 111 107 109 115 114 126 123 121 122 122 117 113 102 112 108 84 86 88 96 97 116 142 152 179 144 1 341 215 288 316 327 233 218 293 156 15 14 15 11 9 358 357 344 343 350 348 335 336 336 334 337 338 336 335 334 333 332 330 327 326 325 324 323 322 321 319 319 319 320 320 319
144 146 151 144 143 136 132 130 129 131 133 132 129 123 123 119 118 125 125 143 128 122 125 115 112 114 113 114 95 90 88 90 88 97 101 130 152 150 129 117 132 311 332 331 315 288 224 274 314 133 25 12 14 6 347 346 338 341 345 338 331 325 327 330 335 334 333 331 330 330 329 327 325 324 323 321 321 320 319 317 316 315 316 315 314
149 150 145 147 143 141 136 135 136 135 132 131 126 123 123 123 131 136 133 140 126 128 126 115 119 116 108 106 111 113 104 95 86 97 100 87 118 148 172 165 170 163 259 296 260 214 295 177 22 272 58 15 3 354 341 336 330 335 333 330 322 318 318 329 331 331 329 328 328 327 325 323 324 323 320 318 320 319 317 315 314 314 314 314 312
153 152 148 146 144 141 136 139 139 138 136 130 125 124 122 122 132 133 143 141 126 117 120 123 123 116 110 104 111 113 114 101 112 110 116 133 132 141 137 149 146 175 206 198 270 215 245 298 181 265 344 6 346 334 327 316 319 330 318 314 316 308 320 328 326 326 327 327 326 324 323 322 322 320 318 319 319 318 315 315 314 312 313 313 312
152 152 149 148 146 144 143 143 144 141 134 130 130 130 134 135 145 148 159 147 134 130 142 130 133 122 122 119 119 121 121 112 107 104 123 137 139 142 143 109 182 166 187 196 247 289 140 245 278 32 5 324 327 311 298 295 307 321 311 303 303 311 320 318 321 323 325 324 324 324 322 321 320 318 318 318 318 317 316 315 313 313 313 312 312
159 154 153 154 153 150 155 149 145 141 136 130 132 133 136 148 155 158 166 145 137 138 139 132 129 126 127 129 137 136 133 119 127 143 135 120 141 130 138 136 156 189 165 193 213 257 237 232 282 297 328 316 309 300 294 291 298 309 300 301 300 310 310 308 314 319 320 320 324 325 324 322 321 321 319 318 317 316 315 314 315 314 313 312 313
158 159 161 159 157 156 155 155 150 148 142 138 130 133 144 160 173 161 153 148 141 142 135 127 123 128 132 133 140 141 138 139 155 152 137 122 98 90 101 113 154 224 170 206 230 281 291 225 189 293 315 314 305 296 305 307 310 307 301 293 292 298 304 305 307 310 314 318 324 324 323 323 323 322 320 318 316 315 316 316 315 313 312 312 315
165 165 163 160 157 157 156 150 145 142 142 142 147 148 160 165 168 169 159 155 148 145 138 137 137 135 135 134 144 149 164 150 164 159 149 134 130 124 219 161 208 222 249 166 261 260 285 324 310 300 294 306 299 302 314 320 316 313 309 304 296 289 298 303 304 302 309 318 323 324 324 324 324 322 320 318 317 316 316 315 314 313 314 316 316
169 171 165 160 158 156 151 149 147 151 155 156 154 150 162 171 170 178 180 167 157 153 151 154 150 142 134 140 156 156 159 151 170 163 142 164 163 166 200 205 200 250 237 195 158 271 291 300 274 317 309 314 304 309 309 295 294 299 306 313 314 309 296 294 296 296 305 317 323 325 325 323 321 321 319 318 316 316 316 314 314 314 315 316 316
167 169 163 157 154 157 152 153 161 162 158 150 151 166 176 182 180 178 178 175 163 158 157 159 156 153 151 148 166 165 165 160 173 164 176 169 179 190 192 221 204 222 222 212 243 212 282 298 300 335 308 315 306 293 294 290 290 303 304 300 295 295 295 293 292 297 303 318 324 324 322 321 320 319 319 317 317 317 315 313 313 313 315 316 316
169 160 160 159 161 162 164 169 170 169 164 159 165 176 185 189 187 177 174 169 160 157 165 165 161 157 160 166 170 167 163 164 185 180 185 189 198 190 202 216 212 220 223 215 222 246 258 274 289 289 291 294 291 297 298 312 313 302 281 287 300 300 305 304 304 303 311 318 320 320 319 319 319 318 318 319 317 315 313 314 315 315 316 318 319
168 172 165 171 176 176 173 173 171 165 164 169 174 175 177 185 185 174 166 164 156 155 165 169 164 167 166 172 171 170 169 174 193 192 187 197 195 202 209 219 215 218 214 234 233 232 250 261 274 299 310 312 310 294 296 307 319 320 320 304 286 299 318 322 320 317 315 318 323 318 320 319 319 320 321 319 318 317 317 317 316 317 319 319 315
172 173 176 177 188 179 174 170 174 170 167 168 170 173 180 185 178 159 158 155 150 157 173 172 170 170 171 173 175 177 181 187 189 194 191 198 196 209 209 210 217 201 221 228 234 241 242 266 277 273 295 294 295 307 316 306 289 291 310 328 327 327 318 325 324 323 322 320 318 320 318 317 318 319 317 318 317 316 315 317 318 319 318 316 313
182 180 178 182 180 177 175 177 171 163 164 170 174 176 184 188 175 164 163 157 155 170 175 180 179 180 180 181 182 187 189 194 192 196 185 197 197 210 214 204 208 199 216 226 238 240 253 273 279 295 292 299 296 275 302 316 315 298 316 325 316 323 325 328 330 323 320 323 323 321 321 316 314 315 313 311 309 310 313 315 315 317 316 314 316
182 179 172 174 171 176 177 174 170 171 179 184 181 180 181 186 173 162 164 163 165 175 186 189 194 189 189 189 193 196 198 200 201 198 197 194 185 206 220 195 204 201 212 225 223 237 265 268 278 283 295 299 302 319 319 326 333 326 324 323 307 311 318 316 322 323 312 322 318 316 318 319 314 313 308 304 302 304 302 306 310 310 312 318 319
174 175 174 176 182 183 179 180 175 178 188 189 189 190 191 180 170 167 153 166 172 182 189 198 205 204 199 196 204 202 205 209 214 218 217 216 208 195 200 189 196 197 205 208 223 227 240 253 260 287 297 290 307 311 304 310 318 315 315 320 319 322 321 312 304 312 325 330 327 316 318 317 308 305 306 307 308 306 302 302 307 315 317 316 313
178 174 172 180 188 188 186 182 183 191 195 194 195 198 193 183 172 168 172 176 178 187 199 202 207 205 206 205 206 215 215 219 221 224 226 223 224 220 213 200 192 187 193 204 218 212 218 247 255 263 278 295 300 301 300 313 312 314 316 319 322 323 324 327 320 320 27 356 326 314 310 312 307 315 320 319 316 312 313 316 317 318 317 315 316
181 167 183 193 189 191 189 188 194 198 199 198 200 201 194 187 178 171 173 177 183 195 202 210 214 204 206 206 211 205 214 215 213 228 231 228 228 231 234 231 224 215 202 187 199 216 228 243 252 262 279 286 295 299 306 313 310 310 312 320 315 315 314 310 306 303 318 345 321 311 306 314 326 319 313 311 315 314 313 314 315 315 315 317 318
167 183 196 190 198 196 195 196 201 199 202 201 203 203 198 192 183 174 179 182 186 201 205 211 212 209 203 208 213 212 209 214 215 213 220 238 241 238 235 235 237 239 240 231 217 210 210 233 254 268 264 290 290 294 308 302 306 306 323 318 310 304 300 297 297 304 311 327 311 308 308 313 328 319 313 316 314 308 307 310 313 317 320 319 318
188 195 196 200 200 203 203 202 203 200 205 206 206 206 201 195 189 181 184 187 197 203 209 210 212 211 208 207 208 216 206 205 211 208 211 217 220 240 251 261 266 266 252 246 248 251 257 261 256 268 276 267 281 295 291 296 310 319 319 310 308 297 297 294 297 295 302 309 314 323 304 303 319 319 312 309 308 305 305 311 317 319 318 319 320
191 196 197 199 205 206 206 205 205 208 213 207 210 209 204 196 194 184 177 192 198 210 215 215 216 214 215 214 213 214 202 203 209 205 204 207 205 220 232 241 245 240 244 251 254 251 244 250 256 268 274 271 274 277 278 295 317 316 311 298 303 308 300 296 288 276 288 310 321 319 290 303 318 313 305 313 316 307 308 313 314 315 318 320 322
200 198 211 207 210 209 207 203 207 218 219 210 213 213 208 199 194 181 175 192 201 210 219 219 218 219 216 215 216 217 207 207 213 217 214 196 204 216 230 240 243 244 242 237 238 235 233 226 229 239 241 258 262 260 270 308 325 317 293 300 321 316 312 303 297 314 291 298 305 297 289 295 313 308 308 314 312 306 308 305 309 314 318 321 320
198 203 205 209 209 205 206 205 211 222 221 212 214 218 215 204 194 183 179 190 203 209 222 218 218 218 218 217 221 220 215 216 210 218 223 216 199 213 222 233 237 241 245 237 244 244 242 244 253 266 277 280 289 303 308 315 315 306 319 315 285 299 311 308 302 310 299 316 297 275 294 298 311 314 310 310 309 302 302 302 305 314 321 320 322
205 210 208 211 212 208 209 212 212 217 224 211 214 220 221 213 203 192 185 193 206 211 222 221 216 224 223 224 226 223 221 222 210 219 221 221 212 204 210 222 234 241 242 223 219 236 243 251 254 262 274 277 301 321 324 313 305 302 291 268 263 289 280 271 289 303 308 305 275 293 306 292 311 317 311 306 300 285 289 293 308 317 316 320 321
217 206 201 211 217 217 217 221 213 217 229 216 214 220 222 219 211 196 187 195 210 219 218 229 222 219 227 228 230 229 225 223 219 221 222 220 221 211 209 218 232 238 234 215 215 213 218 225 251 239 256 271 345 303 297 303 296 294 287 265 259 259 266 270 281 303 311 289 232 345 315 311 317 313 326 320 311 297 267 300 306 299 313 314 314